Wetbulb
25.31 27.22 28.79 29.38 32.74 34.99 37.59 38.28 38.23 39.08 39.99 41.14 41.54 40.74 39.17 39.72 38.96 39.10 38.75 40.40 44.63 47.59 47.65 46.46 46.25 46.20 45.17 44.10 44.21 42.57 40.44 39.31 40.01 37.59 36.81 36.25 37.33 37.65 38.14 39.37 39.30 39.51 41.42
22.14 24.04 25.80 27.13 28.73 32.45 34.11 35.25 35.69 36.40 37.12 37.27 37.05 37.09 37.00 36.26 36.65 37.36 37.71 38.16 38.69 40.98 45.97 45.87 46.16 45.83 43.67 42.88 42.50 42.49 41.11 40.28 40.95 40.07 37.02 34.70 36.57 35.96 36.85 37.61 38.46 37.38 38.96
19.57 20.64 22.45 24.09 26.37 28.32 32.17 33.60 34.67 35.93 36.48 37.45 37.66 37.26 37.04 37.01 36.41 35.37 34.90 36.66 38.15 38.92 39.72 43.73 45.44 44.68 44.06 42.06 42.29 42.61 42.59 40.32 38.95 40.49 37.79 32.90 35.04 32.48 34.51 35.40 35.93 35.04 35.37
18.79 19.38 20.12 21.27 23.38 26.05 31.02 32.24 33.38 34.22 35.22 36.09 36.06 35.91 35.56 33.65 32.87 33.30 33.60 34.28 36.95 37.96 39.18 39.47 41.92 43.52 43.54 42.68 43.12 44.15 43.73 43.83 38.82 39.59 39.80 40.10 34.93 31.00 28.95 33.02 34.28 34.85 34.75
17.43 17.72 19.01 20.74 21.62 23.91 26.71 29.54 31.23 31.70 33.08 34.03 34.64 33.76 32.00 32.24 32.86 33.28 32.85 33.40 34.21 36.20 37.95 39.15 39.30 39.96 41.75 42.43 42.52 42.59 41.61 45.02 41.72 40.16 34.78 35.73 34.47 34.25 31.53 27.86 29.57 32.34 33.16
16.22 17.15 18.48 19.65 19.76 21.31 23.36 25.74 26.89 29.37 31.11 31.88 32.80 31.53 31.34 31.57 30.70 30.85 31.25 31.85 33.05 34.24 35.50 37.63 38.30 38.93 39.03 40.14 40.42 40.15 39.15 41.41 39.60 38.19 36.22 34.78 31.82 30.94 29.57 27.53 28.65 28.27 28.88
14.85 15.19 15.37 16.02 17.59 17.94 19.86 22.78 23.66 24.49 27.41 29.39 30.63 31.72 30.62 29.89 29.50 29.90 29.84 29.94 30.94 31.37 31.92 35.09 36.38 36.86 38.00 38.60 39.00 38.95 38.48 38.31 36.99 36.09 35.77 35.90 35.26 34.86 31.81 30.15 27.93 25.91 27.26
14.00 13.84 14.38 14.75 15.19 16.45 17.11 18.65 20.54 21.36 24.00 25.43 27.34 29.60 31.18 30.41 29.49 29.12 28.95 29.23 29.13 30.07 32.07 32.53 33.27 35.34 37.06 36.91 37.78 37.12 37.23 37.14 37.48 36.92 36.02 33.33 33.97 34.76 32.96 29.81 28.15 23.63 24.13
12.08 12.30 13.18 13.57 13.92 13.90 14.80 16.03 17.68 19.61 21.16 23.04 24.68 25.25 27.96 29.86 29.85 29.26 29.27 28.79 30.28 31.50 31.00 31.85 32.15 33.21 34.73 35.77 34.96 34.74 35.69 35.07 33.62 33.39 34.13 33.30 32.56 33.13 32.88 33.10 32.42 28.41 21.98
10.34 10.45 10.93 11.19 11.78 12.23 13.22 14.29 15.82 17.07 19.31 20.92 22.39 23.77 24.20 26.46 28.23 29.08 28.19 28.42 29.10 29.11 29.32 30.20 31.17 31.83 32.59 33.03 33.88 33.42 33.52 33.45 32.60 32.08 30.40 29.89 30.16 30.72 31.79 32.28 30.67 28.70 26.43
9.69 9.34 9.70 10.42 10.12 10.78 10.64 11.05 11.80 14.27 16.78 18.74 20.10 21.12 22.28 23.73 24.59 25.89 26.83 27.44 28.32 28.78 28.25 28.08 29.17 29.92 30.40 31.27 31.72 31.16 31.77 30.64 30.28 30.26 30.34 28.71 28.70 27.35 28.07 28.86 28.08 27.07 26.30
9.85 9.75 9.33 9.15 8.81 8.21 8.23 8.22 9.43 10.38 13.22 16.72 17.54 18.78 20.14 21.37 21.66 22.82 24.54 26.37 25.87 27.04 26.88 27.05 26.13 26.89 28.20 29.22 29.09 30.10 30.20 29.23 28.06 27.67 27.72 26.96 28.48 25.78 25.96 25.54 24.81 25.60 24.82
9.39 9.29 8.71 7.56 7.15 7.12 6.78 6.46 7.44 7.83 10.72 14.46 15.73 15.98 17.21 18.35 19.33 20.81 22.47 23.16 24.56 25.25 25.57 25.69 25.22 25.22 25.32 25.21 26.11 26.94 26.62 26.87 26.95 26.81 26.47 25.80 25.74 24.31 24.68 24.24 23.67 24.72 27.06
9.36 8.57 6.66 5.13 5.21 5.36 4.45 3.89 5.49 6.78 7.87 11.35 11.29 10.83 12.79 15.16 16.94 18.75 20.53 21.70 22.69 22.65 24.68 25.30 25.30 25.54 25.67 26.02 25.91 25.30 24.33 24.33 25.07 25.59 25.43 25.40 24.97 23.99 23.79 23.83 22.90 24.45 24.48
8.01 7.78 6.83 4.40 1.73 2.40 1.73 2.61 4.23 5.09 5.66 7.23 7.72 7.64 9.22 12.28 13.45 14.52 17.33 19.33 20.25 21.02 22.65 23.15 24.33 25.00 26.21 26.70 26.26 26.57 25.97 24.95 23.53 23.68 25.78 25.09 26.30 27.48 26.28 24.63 23.52 24.20 23.19
6.38 7.63 7.64 6.38 5.22 1.97 -0.56 -0.15 -2.20 0.63 1.56 3.04 3.78 5.89 6.85 7.98 9.14 11.22 13.21 14.80 16.42 18.86 20.20 21.11 21.94 22.65 24.73 29.43 30.84 27.93 25.97 26.12 25.30 23.72 23.97 24.85 27.31 28.01 28.91 28.39 28.32 25.92 24.01
4.68 5.59 4.71 3.42 1.49 -2.17 -6.36 -3.64 -5.15 -6.27 -2.84 -2.36 1.16 1.68 2.84 4.81 5.85 8.31 9.64 10.60 11.87 14.57 16.87 19.06 20.23 20.53 21.80 28.16 29.49 30.77 27.01 26.08 25.97 25.91 25.99 25.21 26.49 27.04 26.20 28.84 29.50 28.99 29.30
2.95 5.15 3.77 3.37 -0.00 -6.41 -8.75 -11.52 -9.15 -7.66 -9.40 -7.01 -6.20 -1.69 -2.00 0.40 4.14 4.83 6.64 7.51 9.75 10.93 12.96 14.92 18.28 19.19 20.37 25.84 27.80 28.98 25.50 24.66 25.94 26.19 26.27 26.09 26.32 26.96 26.85 26.40 26.19 26.84 27.94
5.19 3.52 1.75 -0.33 -2.94 -5.50 -6.40 -9.35 -5.96 -11.48 -12.88 -9.37 -8.91 -8.62 -8.21 -6.43 -1.47 0.58 1.36 6.12 8.31 9.42 11.31 14.68 14.56 15.10 18.12 22.73 24.87 25.97 24.23 23.47 23.61 25.58 26.68 26.33 26.25 27.80 30.94 26.24 25.09 25.43 26.27
6.57 5.24 4.67 -0.12 -5.85 -1.03 -10.33 -10.76 -9.33 -12.77 -10.07 -9.91 -10.44 -12.36 -11.61 -10.65 -10.96 -9.04 -3.07 -0.40 6.06 9.37 11.03 10.90 12.05 13.88 11.99 18.37 22.10 23.63 23.77 21.87 21.97 23.59 24.10 27.05 26.99 28.85 30.38 27.70 24.20 23.09 24.15
6.82 5.55 3.40 3.22 2.90 -1.70 -10.44 -8.46 -11.36 -10.15 -5.60 -9.65 -10.93 -9.69 -12.23 -13.10 -14.04 -13.68 -12.07 -7.81 -2.72 5.22 3.72 7.02 8.20 9.72 11.80 13.25 19.49 22.07 20.82 21.09 21.52 21.96 22.44 24.36 26.57 28.85 31.07 30.81 25.65 24.48 25.73
8.52 8.52 3.07 3.61 4.67 3.93 -0.80 -1.22 -4.61 0.09 -2.57 -8.65 -8.75 -7.81 -9.59 -6.98 -4.20 -14.84 -15.97 -12.83 -13.37 -11.49 -5.43 -4.14 3.41 8.28 10.35 14.99 17.15 19.89 21.39 22.23 20.21 20.27 20.63 21.60 24.65 26.32 27.87 28.04 29.29 31.14 30.47
8.35 7.06 3.31 3.81 4.37 4.62 2.68 2.59 3.04 -0.42 -1.42 -7.52 -7.81 -9.84 -8.59 -6.20 -5.55 -12.30 -11.85 -13.95 -15.69 -14.61 -10.56 -6.10 -2.76 1.60 8.95 10.36 16.12 18.19 20.20 21.91 20.28 21.19 21.93 23.92 24.45 25.04 24.98 26.61 27.83 28.50 25.83
8.04 8.26 6.47 3.63 2.57 3.54 7.78 2.33 2.02 0.87 -2.05 -3.39 -4.51 -5.74 -10.62 -6.18 -6.39 3.50 -1.99 -8.62 -10.73 -12.97 -12.27 -10.51 -7.20 -3.24 1.72 6.17 9.86 11.71 11.33 15.21 16.12 16.95 14.31 17.94 21.62 23.69 22.94 23.44 24.02 23.39 23.80
8.21 7.64 5.78 4.37 3.42 4.21 3.25 3.19 6.05 3.48 1.71 -1.68 -3.37 -5.32 -1.56 -8.37 -5.63 -4.28 -5.85 -7.85 -3.67 -3.62 -4.04 -3.10 -1.56 -2.45 -1.12 4.26 12.31 13.35 11.55 11.03 13.85 15.44 10.48 11.44 12.47 12.76 14.21 15.81 17.17 18.08 19.07
6.59 5.50 5.94 5.00 4.81 3.85 2.98 3.82 4.33 3.90 0.32 -1.27 1.03 -1.27 -3.08 -5.12 -0.17 -2.30 -4.73 10.06 13.38 15.44 16.68 17.66 14.13 7.32 15.01 18.19 19.50 20.90 21.57 22.10 23.02 17.25 10.59 10.35 10.97 10.81 11.44 12.14 13.26 14.85 16.66
MSLP
1018.39 1017.79 1017.25 1016.75 1015.98 1015.24 1014.84 1014.62 1014.60 1014.48 1013.93 1013.67 1013.63 1014.17 1014.28 1014.75 1014.89 1014.52 1014.75 1015.15 1015.28 1014.69 1014.67 1015.21 1016.01 1016.55 1017.05 1017.89 1018.88 1020.09 1021.10 1022.98 1023.14 1023.54 1025.95 1026.97 1027.17 1027.20 1027.08 1027.06 1026.64 1026.77 1026.41
1018.85 1018.72 1018.50 1018.01 1017.43 1016.80 1016.26 1015.86 1015.65 1015.50 1015.04 1014.82 1014.75 1014.94 1015.08 1015.51 1015.59 1015.87 1016.22 1015.70 1016.23 1015.70 1015.31 1016.21 1016.05 1016.53 1017.40 1018.23 1018.94 1019.55 1021.21 1022.27 1022.52 1023.03 1025.38 1027.14 1027.40 1028.45 1028.11 1028.13 1027.65 1028.33 1026.84
1020.35 1020.26 1019.74 1019.44 1018.83 1018.25 1017.50 1016.80 1016.63 1016.28 1015.81 1015.47 1015.47 1015.89 1015.42 1015.56 1016.19 1016.45 1016.18 1016.28 1017.03 1017.07 1016.12 1016.63 1016.75 1016.70 1017.03 1017.73 1018.42 1018.87 1019.42 1021.01 1022.35 1022.59 1022.79 1025.75 1027.19 1028.48 1029.05 1029.20 1028.69 1028.57 1028.62
1021.85 1021.53 1020.98 1020.64 1020.13 1019.67 1018.69 1018.00 1017.56 1017.11 1016.47 1016.19 1015.91 1015.61 1015.88 1016.95 1016.88 1016.79 1016.57 1015.49 1018.14 1017.37 1017.10 1017.00 1018.02 1017.82 1017.12 1017.87 1018.38 1018.64 1018.92 1019.46 1020.84 1022.28 1021.89 1022.22 1023.36 1026.48 1029.14 1029.71 1029.47 1029.50 1029.67
1022.88 1022.65 1022.38 1022.04 1021.59 1020.75 1019.83 1019.18 1018.45 1017.81 1017.51 1017.04 1016.79 1016.77 1017.46 1017.07 1017.63 1017.67 1018.13 1017.62 1017.77 1018.03 1016.95 1018.69 1018.63 1018.02 1018.25 1018.08 1018.68 1019.31 1019.54 1019.56 1019.94 1020.75 1021.61 1022.71 1023.56 1024.30 1025.93 1028.49 1029.37 1030.02 1029.75
1023.73 1023.44 1023.52 1022.97 1022.38 1021.69 1021.20 1020.51 1019.59 1019.07 1018.67 1018.24 1017.85 1017.69 1017.73 1017.85 1017.60 1018.40 1018.47 1018.35 1018.84 1018.07 1018.64 1018.27 1019.37 1018.23 1018.92 1018.42 1019.02 1019.45 1019.71 1020.14 1020.32 1020.99 1020.91 1021.26 1022.02 1022.70 1023.64 1025.58 1028.34 1028.45 1029.35
1024.48 1024.45 1024.48 1024.01 1023.67 1023.39 1022.78 1021.76 1021.00 1020.50 1019.94 1019.45 1018.85 1018.58 1018.56 1018.60 1018.85 1018.54 1019.46 1018.62 1020.04 1019.26 1018.94 1019.34 1019.31 1018.35 1019.73 1019.65 1019.12 1019.68 1019.72 1020.72 1020.66 1021.21 1021.41 1021.36 1021.41 1021.44 1022.18 1023.65 1026.09 1027.83 1029.44
1025.82 1025.79 1025.68 1025.38 1025.16 1024.80 1024.24 1023.35 1022.55 1022.03 1021.32 1020.68 1020.18 1019.77 1019.52 1019.48 1019.64 1019.35 1020.14 1020.55 1019.81 1019.96 1020.04 1020.10 1019.75 1019.21 1019.79 1019.95 1020.08 1020.36 1020.11 1020.58 1020.93 1021.27 1021.49 1021.76 1021.63 1021.52 1022.09 1022.81 1024.02 1027.91 1029.25
1026.61 1026.68 1026.62 1026.56 1026.47 1026.13 1025.58 1024.87 1024.11 1023.27 1022.75 1022.11 1021.64 1021.22 1020.68 1020.29 1020.52 1020.79 1020.89 1020.12 1021.13 1021.33 1019.36 1020.99 1020.17 1020.42 1020.08 1020.60 1020.24 1020.88 1020.81 1021.22 1021.24 1020.97 1021.74 1021.83 1022.39 1022.06 1022.08 1022.91 1022.57 1023.64 1027.70
1027.48 1027.76 1027.87 1027.87 1027.76 1027.39 1026.86 1026.12 1025.33 1024.77 1024.25 1023.31 1022.97 1022.62 1022.10 1021.68 1021.63 1021.50 1021.34 1021.44 1021.64 1020.61 1020.59 1021.12 1020.72 1021.08 1021.20 1020.93 1021.35 1021.40 1021.50 1021.62 1021.10 1022.41 1021.73 1022.32 1022.70 1022.96 1022.58 1022.61 1023.16 1023.61 1024.30
1028.34 1028.77 1028.96 1029.00 1028.87 1028.44 1027.88 1027.39 1026.72 1026.01 1025.22 1024.72 1024.40 1023.96 1023.45 1023.23 1022.89 1022.56 1022.31 1022.15 1021.79 1021.65 1021.26 1022.50 1022.39 1021.82 1022.33 1020.97 1022.10 1022.05 1022.08 1022.21 1023.02 1022.40 1022.53 1022.99 1022.88 1023.72 1023.14 1023.25 1023.77 1023.91 1024.09
1029.07 1029.45 1029.63 1029.79 1029.64 1029.39 1029.02 1028.67 1028.18 1027.54 1026.96 1026.32 1025.74 1025.19 1024.85 1024.52 1024.18 1023.78 1023.41 1023.12 1023.09 1022.91 1023.03 1022.88 1022.39 1022.83 1022.51 1022.41 1022.51 1023.00 1022.98 1022.86 1023.61 1023.15 1023.09 1023.72 1023.60 1024.35 1024.39 1023.86 1024.83 1024.40 1024.35
1029.45 1029.79 1029.99 1030.14 1030.33 1030.25 1030.06 1029.81 1029.41 1028.94 1028.23 1027.45 1026.93 1026.55 1026.18 1025.78 1025.38 1025.06 1024.78 1024.35 1023.83 1023.79 1023.64 1023.67 1023.78 1023.60 1023.12 1022.91 1023.20 1023.86 1023.42 1023.19 1023.61 1023.74 1023.34 1023.87 1023.80 1023.95 1024.27 1024.78 1025.00 1024.98 1025.04
1029.67 1029.98 1030.24 1030.53 1030.76 1030.89 1030.78 1030.53 1030.21 1029.76 1029.22 1028.60 1028.17 1027.80 1027.53 1027.17 1026.73 1026.36 1025.82 1025.43 1025.23 1024.81 1024.59 1024.44 1024.21 1024.04 1023.80 1023.81 1023.56 1024.06 1024.18 1024.10 1023.57 1024.45 1023.95 1024.08 1023.96 1023.69 1024.52 1024.76 1024.66 1024.97 1025.63
1029.88 1030.10 1030.41 1030.85 1031.34 1031.52 1031.40 1031.21 1030.94 1030.53 1030.09 1029.48 1029.05 1028.94 1028.61 1028.09 1027.70 1027.29 1026.92 1026.61 1026.28 1026.05 1025.50 1025.16 1025.09 1024.90 1024.52 1024.77 1025.13 1025.08 1024.69 1024.49 1024.78 1025.23 1024.68 1024.29 1024.31 1024.75 1024.60 1024.53 1024.74 1024.95 1025.79
1030.46 1030.56 1030.72 1031.20 1031.62 1031.88 1032.03 1031.90 1031.70 1031.30 1030.83 1030.55 1030.20 1029.66 1029.14 1028.78 1028.53 1028.17 1027.80 1027.51 1027.11 1026.63 1026.22 1026.14 1026.01 1025.74 1025.57 1025.09 1024.71 1025.11 1025.27 1025.69 1026.03 1025.19 1025.43 1024.80 1024.49 1024.80 1025.11 1025.16 1024.66 1025.59 1025.61
1031.15 1031.31 1031.55 1031.76 1032.03 1032.26 1032.43 1032.43 1032.27 1031.76 1031.49 1031.31 1030.97 1030.64 1030.19 1029.70 1029.30 1028.91 1028.59 1028.37 1028.17 1027.81 1027.45 1027.04 1026.71 1026.53 1026.36 1025.58 1025.24 1025.02 1025.40 1025.54 1025.31 1025.56 1025.49 1025.75 1025.95 1025.43 1026.16 1025.47 1025.21 1025.71 1026.15
1031.44 1031.59 1031.83 1032.09 1032.22 1032.50 1032.96 1032.81 1032.59 1032.51 1032.51 1032.50 1031.84 1031.37 1031.05 1030.66 1030.26 1029.98 1029.56 1029.13 1028.84 1028.56 1028.22 1027.88 1027.62 1027.27 1026.81 1026.11 1025.76 1025.51 1025.84 1025.88 1025.90 1025.67 1025.76 1025.95 1026.20 1026.15 1026.25 1026.04 1026.16 1026.33 1026.89
1031.31 1031.46 1031.65 1031.91 1032.24 1032.60 1032.75 1033.18 1033.20 1033.24 1033.33 1033.07 1032.85 1032.16 1031.95 1031.66 1031.35 1031.06 1030.76 1030.21 1029.78 1029.25 1028.69 1028.23 1028.05 1027.83 1027.49 1026.76 1026.26 1026.06 1026.13 1026.15 1025.92 1025.80 1025.90 1025.94 1026.08 1026.01 1025.80 1026.07 1026.33 1026.60 1026.92
1030.88 1031.09 1031.17 1031.70 1032.05 1032.23 1032.63 1033.32 1033.25 1033.26 1033.12 1033.05 1032.68 1032.48 1032.41 1032.28 1032.11 1031.77 1031.56 1031.03 1030.56 1030.01 1029.63 1029.14 1028.70 1028.40 1028.04 1027.61 1026.77 1026.31 1026.18 1026.29 1026.18 1025.99 1025.90 1025.72 1025.42 1025.41 1025.33 1025.38 1025.93 1026.29 1026.51
1030.10 1030.10 1030.52 1031.09 1031.28 1031.48 1032.28 1032.58 1032.49 1032.53 1032.30 1032.16 1032.14 1032.16 1032.29 1032.40 1032.26 1032.15 1031.96 1031.68 1031.23 1030.80 1030.35 1029.99 1029.46 1028.90 1028.47 1027.82 1027.10 1026.43 1026.08 1026.13 1026.04 1025.92 1025.63 1025.36 1025.14 1024.89 1024.68 1024.67 1025.10 1025.28 1025.64
1029.51 1029.67 1030.18 1030.40 1030.49 1030.65 1031.30 1031.65 1031.78 1031.17 1031.47 1031.65 1031.76 1031.92 1031.84 1031.91 1032.02 1032.09 1031.97 1031.87 1031.48 1031.56 1031.24 1030.52 1029.75 1029.02 1028.63 1027.95 1027.15 1026.51 1025.88 1025.52 1025.43 1025.55 1025.48 1025.51 1025.26 1024.96 1024.72 1024.43 1024.44 1024.32 1024.38
1029.12 1029.20 1029.51 1029.73 1029.82 1029.89 1030.28 1030.50 1030.23 1030.54 1030.86 1031.27 1031.41 1031.47 1031.46 1031.46 1031.58 1031.58 1031.63 1031.93 1031.59 1031.78 1030.94 1030.63 1029.98 1029.20 1028.59 1028.11 1027.30 1026.65 1025.92 1025.24 1025.12 1025.22 1024.96 1024.67 1024.49 1024.28 1024.23 1024.16 1024.17 1024.17 1024.31
1028.54 1028.61 1028.84 1029.19 1029.27 1029.14 1029.05 1029.36 1029.41 1029.68 1030.09 1030.82 1030.81 1030.80 1031.20 1030.96 1031.01 1030.90 1030.84 1030.71 1030.81 1030.50 1030.19 1029.90 1029.49 1029.00 1028.50 1027.89 1027.35 1026.97 1026.75 1026.29 1025.87 1025.60 1025.65 1025.12 1024.52 1024.29 1024.37 1024.16 1023.87 1023.93 1024.29
1027.89 1027.90 1028.08 1028.29 1028.38 1028.48 1028.55 1028.40 1028.49 1028.83 1029.42 1029.69 1030.04 1030.26 1030.18 1030.46 1030.51 1030.25 1029.88 1029.42 1029.21 1029.06 1028.86 1028.37 1028.31 1028.22 1027.84 1026.96 1026.56 1026.00 1025.72 1025.51 1025.26 1024.96 1025.16 1024.98 1024.84 1024.69 1024.52 1024.39 1024.44 1024.41 1024.45
1027.22 1027.28 1027.27 1027.32 1027.24 1027.36 1027.44 1027.44 1027.59 1027.87 1028.42 1028.89 1029.12 1029.22 1029.66 1029.81 1029.61 1029.60 1028.89 1028.08 1027.36 1026.70 1026.05 1025.57 1025.52 1026.32 1025.88 1025.48 1024.97 1024.39 1023.99 1023.63 1023.44 1023.82 1024.39 1024.39 1024.32 1024.33 1024.21 1024.08 1024.00 1023.99 1024.02
Wind_Speed
14 16 17 17 18 18 16 15 13 11 7 5 3 3 3 4 5 9 12 11 9 4 6 10 10 9 10 11 12 13 16 8 12 9 9 8 10 10 8 7 7 9 7
16 17 17 17 17 16 15 14 13 11 8 5 3 3 3 3 2 5 8 10 10 11 6 2 10 11 11 13 14 16 10 6 6 7 4 3 5 5 7 5 7 6 8
16 16 16 17 15 15 14 14 13 10 9 7 2 1 3 3 3 1 5 6 8 10 11 6 3 9 10 12 15 15 15 12 5 7 7 6 5 3 4 5 4 4 4
14 15 15 16 16 15 13 14 13 12 11 11 6 8 4 2 3 3 4 8 3 8 10 12 6 2 5 8 10 12 10 14 12 5 1 3 7 8 4 1 1 2 1
14 14 15 15 15 15 13 12 13 14 13 12 10 6 6 5 3 4 3 7 6 6 11 7 7 4 3 6 4 7 4 9 6 7 5 5 3 6 6 6 5 1 2
14 15 14 15 15 16 15 14 15 14 13 12 12 10 8 6 6 5 5 5 3 5 5 7 3 9 5 3 4 4 5 2 2 1 2 6 4 6 6 5 9 8 4
13 14 15 15 15 16 16 14 16 16 14 14 13 11 10 9 8 5 4 7 4 4 6 3 3 6 5 4 4 3 6 1 3 4 2 2 1 3 4 8 8 5 3
12 13 13 13 14 15 16 15 16 15 16 14 13 11 10 7 6 9 5 5 4 5 5 4 4 6 4 5 4 2 5 2 5 3 1 1 2 3 5 7 15 6 2
11 13 13 13 13 14 15 15 15 15 16 15 13 13 11 11 8 8 6 6 5 2 9 5 6 5 6 4 5 3 3 5 3 3 5 3 3 1 4 8 13 13 7
12 11 11 12 12 13 12 14 14 14 14 14 13 11 13 12 10 8 9 8 5 9 8 7 8 6 5 6 3 3 4 3 4 2 6 4 2 1 2 8 5 2 6
10 9 9 9 10 11 13 13 14 15 15 14 13 13 13 13 12 10 9 8 8 7 9 5 4 6 4 6 4 4 5 6 3 5 6 5 6 4 3 3 2 3 4
8 8 8 8 10 11 11 12 12 12 12 11 11 13 12 13 13 12 11 9 9 8 7 6 7 5 5 5 5 2 4 7 5 6 8 6 6 3 4 5 3 3 2
8 7 7 8 8 9 9 9 10 11 11 10 11 11 12 12 12 12 11 11 9 8 8 8 7 7 7 6 6 4 4 4 3 5 9 7 6 5 3 4 4 3 4
7 7 6 5 6 7 7 7 9 9 9 9 10 11 11 11 10 10 11 11 10 10 8 6 7 8 8 9 9 7 6 6 6 4 5 3 5 8 6 4 5 6 6
8 7 6 5 4 4 6 7 7 8 8 8 9 9 9 9 9 10 10 9 10 9 9 8 8 6 4 3 4 5 5 6 5 3 4 4 4 3 5 4 3 6 5
7 8 7 7 6 5 4 4 5 6 6 7 7 8 9 9 9 9 9 10 10 10 9 8 8 7 5 10 3 5 2 1 1 2 5 6 4 3 2 3 7 2 5
5 6 5 4 4 5 3 5 5 4 5 5 6 7 8 8 9 9 9 9 9 8 8 8 7 7 7 13 11 12 2 2 1 2 2 2 3 4 4 2 7 7 7
3 5 4 5 5 3 4 4 5 6 5 5 5 5 6 7 7 8 9 8 7 8 7 6 6 6 6 14 15 12 5 1 2 3 3 4 4 5 4 3 2 1 2
5 5 5 4 4 4 4 3 5 4 3 4 4 4 3 5 6 7 6 6 6 7 7 8 8 7 6 12 11 11 3 3 3 2 3 6 5 10 14 8 8 6 5
5 6 6 3 3 6 3 2 4 3 5 4 5 3 2 1 3 4 6 3 4 7 8 9 8 13 9 14 15 11 4 4 4 4 6 12 9 16 16 8 9 8 8
7 4 3 6 7 5 5 5 4 5 6 4 4 2 2 2 4 3 2 3 4 6 4 8 7 8 9 10 17 16 7 5 3 4 4 4 12 17 18 19 10 11 9
5 4 4 6 7 6 5 6 5 7 5 4 4 4 4 3 2 2 3 3 2 3 5 4 6 6 7 13 13 16 17 15 7 6 6 6 12 14 16 14 15 15 16
5 4 5 6 5 6 7 7 8 5 6 4 5 4 4 3 5 3 4 3 2 2 4 3 4 5 7 7 16 16 18 18 10 6 9 16 17 19 17 21 19 17 6
7 6 6 6 6 6 7 8 7 6 6 6 5 4 3 5 5 5 4 3 2 2 2 3 4 5 5 7 6 7 6 12 11 12 7 11 13 12 8 9 11 6 3
8 6 7 7 8 7 7 7 7 6 7 6 5 5 4 4 4 4 5 4 5 6 5 6 6 6 7 9 10 10 7 7 11 10 3 4 5 6 6 5 5 4 3
8 8 9 9 9 7 7 7 6 6 6 5 5 5 4 4 4 3 4 12 17 18 18 18 10 9 18 20 21 22 21 21 21 9 6 7 6 6 6 6 6 5 9
Wind_Direction
23 23 22 17 17 25 34 34 26 21 25 19 18 11 51 27 48 30 26 19 5 37 136 144 146 143 143 139 133 125 125 115 129 101 79 47 38 36 29 24 33 25 41
26 22 20 18 18 18 22 27 27 21 32 37 39 31 74 77 63 39 40 37 19 13 60 211 158 153 143 140 146 146 140 130 188 120 118 123 38 359 28 15 37 354 35
28 21 21 19 14 11 15 25 21 18 25 26 72 176 83 38 40 93 59 52 34 20 40 34 289 154 154 158 162 158 153 159 190 209 130 139 168 122 350 4 37 28 38
34 27 23 20 15 10 12 23 25 24 24 20 30 36 55 108 32 38 67 53 41 55 44 43 352 22 133 159 172 174 167 165 169 185 199 70 137 152 152 321 356 38 79
42 33 28 25 20 14 18 13 30 34 28 32 34 51 69 71 80 97 90 78 66 74 72 46 17 55 17 113 141 178 181 196 154 165 145 108 146 118 139 150 166 194 225
44 41 33 30 24 22 18 23 25 29 30 35 40 47 52 59 61 60 60 56 13 66 72 75 15 48 17 78 121 113 41 198 107 65 133 162 181 173 150 125 159 148 164
43 40 28 27 26 22 19 24 24 28 22 32 37 45 53 54 59 59 57 68 16 30 39 47 51 82 35 25 94 150 132 257 90 137 106 69 332 105 106 127 144 133 125
48 41 33 29 25 22 19 22 26 25 23 25 29 33 46 58 55 56 49 76 65 34 38 46 48 80 71 55 48 82 89 158 174 165 355 41 37 95 145 158 140 111 113
45 37 32 29 24 20 18 19 23 26 26 25 29 28 34 46 62 63 61 48 43 79 49 16 49 45 57 100 68 67 79 81 57 103 158 111 341 89 120 160 161 148 149
52 39 34 28 23 21 15 17 21 26 25 28 27 29 33 34 38 50 56 53 52 48 62 24 46 40 59 66 70 100 62 56 72 45 67 59 59 20 138 155 162 110 126
65 48 37 30 25 22 20 17 17 17 21 23 25 30 30 32 35 40 41 34 39 38 50 45 51 51 45 61 73 73 92 96 106 99 101 43 31 358 68 93 110 129 118
64 58 49 39 32 28 23 19 14 14 10 16 25 31 30 30 32 32 29 36 43 37 40 23 41 61 57 64 60 46 144 129 140 131 125 139 127 91 21 61 20 111 109
70 59 51 45 34 26 25 21 17 10 4 13 28 30 30 28 28 25 24 27 29 40 43 42 32 27 33 65 76 94 59 81 115 148 141 141 133 119 115 121 113 81 78
62 56 48 41 32 23 17 14 13 10 8 19 27 28 23 22 22 21 25 25 23 26 28 39 43 36 30 28 39 43 49 47 64 36 43 67 143 136 144 135 120 115 106
30 33 36 38 20 18 11 7 8 8 4 19 29 23 12 20 21 18 20 24 27 23 22 27 27 23 56 52 26 29 30 41 36 28 60 80 64 138 149 139 137 126 123
12 6 11 12 3 6 3 3 353 353 4 14 19 14 16 16 16 17 18 17 15 14 20 24 20 20 7 351 332 176 172 200 227 29 21 14 74 126 148 134 144 136 145
347 339 340 330 335 328 333 343 332 338 10 14 3 9 12 14 10 8 14 17 11 6 7 10 13 11 358 343 347 359 173 215 222 191 182 265 313 31 7 209 166 181 188
285 301 301 310 307 303 324 322 346 350 351 357 359 0 3 7 5 5 7 1 1 1 355 342 3 358 343 338 338 344 38 317 238 222 210 210 204 213 231 279 309 349 332
250 243 234 233 258 276 280 325 331 348 1 324 323 333 353 356 353 355 348 342 354 347 340 349 2 359 339 328 314 316 337 312 311 294 235 213 214 215 227 194 214 223 220
243 249 240 233 232 256 209 187 267 305 299 280 263 267 292 309 322 308 318 305 338 338 342 339 338 332 336 324 316 317 307 267 276 261 248 264 214 226 234 216 195 212 216
267 248 233 235 237 228 170 221 234 254 248 260 257 271 257 238 242 275 291 299 317 323 323 320 317 312 312 311 303 298 288 293 296 275 257 254 256 266 239 233 195 207 205
262 243 218 232 239 219 179 230 230 240 239 231 236 257 270 282 255 225 276 291 322 316 300 311 306 306 305 303 300 291 284 280 261 262 260 258 263 260 266 277 279 244 231
261 237 219 238 241 218 196 227 245 217 219 197 223 236 259 265 263 260 285 305 270 238 278 275 283 291 300 295 299 301 298 295 292 295 259 253 251 254 257 260 259 261 258
257 244 239 233 242 232 233 213 229 215 200 225 233 240 224 260 256 263 221 226 249 257 244 254 262 269 276 278 283 287 289 285 291 296 300 290 290 297 325 289 265 270 273
252 240 239 235 235 226 227 228 216 195 211 214 222 224 213 237 261 246 223 223 236 205 227 236 226 234 258 257 252 252 243 245 248 258 228 253 256 263 266 261 254 261 263
252 244 243 242 241 225 228 226 214 192 189 205 219 214 218 236 240 240 277 285 286 286 288 286 257 227 241 260 264 265 269 270 253 232 219 234 233 234 244 245 238 225 244